AXB1996 VECC-VEBD

Flight info

Callsign AXB1996
Flight time 0h 49m
Altitude 32000
Route ONOTO2C ONOTO A467 KHR W105 LOTPU
Aircraft B38M/M-SDE1FGHILORVWXY/HB1

Departure

Time 2026-05-04 05:40
Airport Netaji Subhash Chandra Bose International Airport (VECC)

Arrival

Time 2026-05-04 06:29
Airport Bagdogra Airport (VEBD)
Time Latitude Longitude Altitude Speed Heading
2026-05-04 05:06 22.64237 88.44047 29 ft 0 kts 277°
2026-05-04 05:28 22.64190 88.44142 29 ft 1 kts 13°
2026-05-04 05:32 22.64195 88.44144 29 ft 4 kts 13°
2026-05-04 05:32 22.64253 88.44152 29 ft 11 kts
2026-05-04 05:33 22.64438 88.44176 29 ft 15 kts
2026-05-04 05:33 22.64551 88.44191 29 ft 17 kts
2026-05-04 05:33 22.64679 88.44207 29 ft 19 kts
2026-05-04 05:33 22.64817 88.44225 29 ft 21 kts
2026-05-04 05:34 22.64970 88.44245 29 ft 23 kts
2026-05-04 05:34 22.65061 88.44276 29 ft 14 kts 58°
2026-05-04 05:34 22.65105 88.44377 29 ft 16 kts 65°
2026-05-04 05:34 22.65199 88.44430 29 ft 17 kts
2026-05-04 05:35 22.65325 88.44448 29 ft 19 kts
2026-05-04 05:35 22.65461 88.44462 30 ft 21 kts
2026-05-04 05:35 22.65610 88.44478 30 ft 22 kts
2026-05-04 05:35 22.65773 88.44498 30 ft 24 kts
2026-05-04 05:36 22.65881 88.44525 30 ft 14 kts 30°
2026-05-04 05:36 22.65966 88.44585 31 ft 15 kts 31°
2026-05-04 05:36 22.66070 88.44643 29 ft 18 kts 13°
2026-05-04 05:36 22.66203 88.44661 28 ft 21 kts
2026-05-04 05:37 22.66358 88.44680 27 ft 23 kts
2026-05-04 05:37 22.66499 88.44699 31 ft 16 kts 19°
2026-05-04 05:37 22.66581 88.44784 27 ft 17 kts 52°
2026-05-04 05:38 22.66785 88.44934 28 ft 20 kts
2026-05-04 05:38 22.66929 88.44953 29 ft 21 kts
2026-05-04 05:38 22.67045 88.44934 30 ft 16 kts 334°
2026-05-04 05:38 22.67086 88.44964 30 ft 7 kts 137°
2026-05-04 05:39 22.67066 88.44968 29 ft 0 kts 183°
2026-05-04 05:39 22.67016 88.44964 29 ft 25 kts 185°
2026-05-04 05:39 22.66609 88.44917 27 ft 91 kts 185°
2026-05-04 05:40 22.64680 88.44686 151 ft 174 kts 189°
2026-05-04 05:40 22.63487 88.44502 868 ft 167 kts 185°
2026-05-04 05:40 22.62330 88.44342 1474 ft 171 kts 191°
2026-05-04 05:41 22.61244 88.43855 2069 ft 172 kts 217°
2026-05-04 05:41 22.60514 88.42829 2683 ft 175 kts 248°
2026-05-04 05:41 22.60279 88.41533 3313 ft 176 kts 259°
2026-05-04 05:41 22.60076 88.40185 3787 ft 190 kts 258°
2026-05-04 05:42 22.59839 88.38701 4158 ft 211 kts 258°
2026-05-04 05:42 22.59565 88.37051 4479 ft 235 kts 258°
2026-05-04 05:42 22.59257 88.35237 4878 ft 255 kts 258°
2026-05-04 05:42 22.58925 88.33284 5305 ft 272 kts 258°
2026-05-04 05:43 22.58584 88.31270 5985 ft 276 kts 259°
2026-05-04 05:43 22.58367 88.29192 6691 ft 280 kts 274°
2026-05-04 05:43 22.58925 88.27182 7432 ft 282 kts 300°
2026-05-04 05:45 22.72383 88.23089 10618 ft 328 kts 350°
2026-05-04 05:45 22.74681 88.22726 11080 ft 337 kts 350°
2026-05-04 05:47 22.91736 88.23280 15721 ft 366 kts
2026-05-04 05:47 22.94300 88.23393 16318 ft 370 kts
2026-05-04 05:47 22.96899 88.23508 16918 ft 375 kts
2026-05-04 05:48 22.99490 88.23622 17491 ft 379 kts
2026-05-04 05:48 23.02142 88.23739 18052 ft 383 kts
2026-05-04 05:48 23.04819 88.23857 18560 ft 387 kts
2026-05-04 05:48 23.07517 88.23976 19064 ft 389 kts
2026-05-04 05:49 23.10231 88.24096 19577 ft 391 kts
2026-05-04 05:49 23.12961 88.24216 20083 ft 393 kts
2026-05-04 05:49 23.15704 88.24338 20572 ft 396 kts
2026-05-04 05:49 23.18471 88.24460 21063 ft 398 kts
2026-05-04 05:51 23.38206 88.26990 24200 ft 418 kts
2026-05-04 05:51 23.41109 88.27362 24574 ft 421 kts
2026-05-04 05:52 23.44038 88.27736 24945 ft 424 kts
2026-05-04 05:52 23.46982 88.28113 25299 ft 428 kts
2026-05-04 05:52 23.49958 88.28495 25678 ft 431 kts
2026-05-04 05:52 23.52919 88.28874 26040 ft 434 kts
2026-05-04 05:53 23.55935 88.29261 26396 ft 437 kts
2026-05-04 05:54 23.76555 88.31909 28678 ft 457 kts
2026-05-04 05:55 23.79727 88.32318 29002 ft 460 kts
2026-05-04 05:55 23.82890 88.32725 29321 ft 463 kts
2026-05-04 05:55 23.86110 88.33140 29634 ft 466 kts
2026-05-04 05:55 23.89347 88.33557 29952 ft 469 kts
2026-05-04 05:56 23.92567 88.33883 30195 ft 467 kts 355°
2026-05-04 05:56 23.95759 88.33477 30448 ft 459 kts 340°
2026-05-04 05:56 23.98720 88.32236 30659 ft 453 kts 327°
2026-05-04 05:56 24.01319 88.30329 30839 ft 447 kts 313°
2026-05-04 05:57 24.03490 88.27906 31081 ft 445 kts 308°
2026-05-04 05:57 24.05527 88.25398 31302 ft 447 kts 306°
2026-05-04 05:57 24.07539 88.22791 31572 ft 447 kts 305°
2026-05-04 05:57 24.09526 88.20151 31819 ft 449 kts 304°
2026-05-04 05:58 24.13445 88.14851 31922 ft 448 kts 304°
2026-05-04 05:58 24.17355 88.09521 31920 ft 448 kts 304°
2026-05-04 05:59 24.21236 88.04221 31913 ft 448 kts 304°
2026-05-04 05:59 24.25150 87.98892 31906 ft 449 kts 306°
2026-05-04 06:00 24.27487 87.96580 31902 ft 459 kts 321°
2026-05-04 06:00 24.30367 87.94982 31914 ft 470 kts 335°
2026-05-04 06:00 24.36644 87.92904 31920 ft 474 kts 338°
2026-05-04 06:01 24.42995 87.90868 31923 ft 474 kts 338°
2026-05-04 06:03 24.68258 87.82844 31920 ft 472 kts 338°
2026-05-04 06:05 24.90448 87.76194 31666 ft 466 kts 339°
2026-05-04 06:05 24.96746 87.74371 30112 ft 468 kts 339°
2026-05-04 06:05 24.99878 87.73465 29498 ft 459 kts 339°
2026-05-04 06:06 25.02939 87.72578 28983 ft 448 kts 339°
2026-05-04 06:06 25.05925 87.71712 28476 ft 440 kts 340°
2026-05-04 06:06 25.08838 87.70868 27954 ft 437 kts 340°
2026-05-04 06:06 25.11774 87.70016 27426 ft 433 kts 340°
2026-05-04 06:07 25.14684 87.69171 26920 ft 431 kts 340°
2026-05-04 06:07 25.17579 87.68330 26405 ft 429 kts 340°
2026-05-04 06:07 25.20461 87.67493 25893 ft 426 kts 341°
2026-05-04 06:07 25.23324 87.66660 25383 ft 424 kts 341°
2026-05-04 06:08 25.26174 87.65831 24892 ft 422 kts 341°
2026-05-04 06:08 25.28975 87.65016 24408 ft 420 kts 341°
2026-05-04 06:08 25.31789 87.64196 23933 ft 414 kts 341°
2026-05-04 06:08 25.34562 87.63388 23445 ft 409 kts 342°
2026-05-04 06:09 25.37304 87.62589 22907 ft 404 kts 342°
2026-05-04 06:09 25.40008 87.61800 22430 ft 397 kts 342°
2026-05-04 06:11 25.58128 87.56532 19476 ft 379 kts 346°
2026-05-04 06:11 25.60783 87.56420 18998 ft 386 kts
2026-05-04 06:13 25.76585 87.67494 16098 ft 379 kts 33°
2026-05-04 06:14 25.89208 87.77506 13724 ft 361 kts 32°
2026-05-04 06:14 25.91207 87.79095 13296 ft 355 kts 32°
2026-05-04 06:15 25.93198 87.80686 12913 ft 348 kts 34°
2026-05-04 06:15 25.95133 87.82253 12546 ft 340 kts 33°
2026-05-04 06:15 25.97035 87.83783 12188 ft 334 kts 33°
2026-05-04 06:15 25.98909 87.85286 11827 ft 328 kts 33°
2026-05-04 06:16 26.00724 87.86739 11480 ft 322 kts 33°
2026-05-04 06:16 26.02536 87.88183 11124 ft 318 kts 33°
2026-05-04 06:16 26.04338 87.89616 10776 ft 321 kts 33°
2026-05-04 06:16 26.06156 87.91057 10556 ft 318 kts 33°
2026-05-04 06:17 26.07932 87.92472 10415 ft 309 kts 34°
2026-05-04 06:17 26.09624 87.93855 10267 ft 302 kts 34°
2026-05-04 06:17 26.11279 87.95211 10263 ft 290 kts 34°
2026-05-04 06:17 26.12911 87.96564 10148 ft 289 kts 37°
2026-05-04 06:18 26.14296 87.98161 9801 ft 294 kts 49°
2026-05-04 06:18 26.15566 87.99951 9417 ft 294 kts 50°
2026-05-04 06:18 26.16827 88.01744 9000 ft 294 kts 50°
2026-05-04 06:20 26.25472 88.13289 6323 ft 258 kts 50°
2026-05-04 06:20 26.26644 88.14766 6021 ft 250 kts 50°
2026-05-04 06:21 26.31255 88.20546 4901 ft 251 kts 50°
2026-05-04 06:21 26.32429 88.21995 4641 ft 251 kts 50°
2026-05-04 06:22 26.33598 88.23447 4340 ft 252 kts 50°
2026-05-04 06:22 26.34774 88.24909 4068 ft 252 kts 50°
2026-05-04 06:25 26.51916 88.32246 2463 ft 182 kts
2026-05-04 06:25 26.53170 88.32285 2489 ft 179 kts
2026-05-04 06:26 26.54395 88.32327 2494 ft 177 kts
2026-05-04 06:26 26.55635 88.32371 2465 ft 177 kts
2026-05-04 06:26 26.56854 88.32411 2308 ft 177 kts
2026-05-04 06:26 26.58091 88.32451 2134 ft 171 kts
2026-05-04 06:27 26.62424 88.32597 1316 ft 152 kts
2026-05-04 06:28 26.63476 88.32631 1115 ft 151 kts
2026-05-04 06:28 26.64527 88.32669 936 ft 151 kts
2026-05-04 06:28 26.65580 88.32699 695 ft 151 kts
2026-05-04 06:28 26.66620 88.32746 435 ft 148 kts
2026-05-04 06:29 26.67573 88.32784 414 ft 111 kts
2026-05-04 06:29 26.68165 88.32806 416 ft 68 kts
2026-05-04 06:29 26.68599 88.32819 422 ft 49 kts
2026-05-04 06:29 26.68754 88.32846 423 ft 12 kts 69°
2026-05-04 06:30 26.68751 88.32940 420 ft 10 kts 95°
2026-05-04 06:30 26.68698 88.32968 422 ft 11 kts 184°
2026-05-04 06:30 26.68607 88.32963 416 ft 15 kts 181°
2026-05-04 06:30 26.68492 88.32963 416 ft 19 kts 180°
2026-05-04 06:31 26.68364 88.32956 412 ft 14 kts 188°
2026-05-04 06:31 26.68343 88.32896 414 ft 8 kts 274°
2026-05-04 06:31 26.68347 88.32848 415 ft 6 kts 276°
2026-05-04 06:31 26.68353 88.32782 416 ft 10 kts 276°
2026-05-04 06:32 26.68352 88.32704 419 ft 8 kts 270°
2026-05-04 06:33 26.68369 88.32621 415 ft 0 kts 227°